EW6266 Weather Reports


time (UTC)temp
C
wind
direction
speed
KPH
gust
KPH
rain 1hr
cm
rain 24hr
cm
rain mn
cm
humidity
%
barometer
mb
20260505200046 22 339 4.8 16.1 0.00 0.00 0.00 55 1007.0
20260505194540 22 292 4.8 8.0 0.00 0.00 0.00 55 1007.0
20260505193039 22 307 1.6 8.0 0.00 0.00 0.00 60 1007.0
20260505191537 22 303 1.6 8.0 0.00 0.00 0.00 58 1007.0
20260505190038 21 244 1.6 9.7 0.00 0.00 0.00 63 1007.1
20260505184531 21 289 4.8 17.7 0.00 0.00 0.00 58 1007.3
20260505183031 20 30 1.6 9.7 0.00 0.00 0.00 64 1007.2
20260505181526 20 309 6.4 14.5 0.00 0.00 0.00 63 1007.1
20260505180023 20 321 9.7 17.7 0.00 0.00 0.00 66 1007.1
20260505174520 20 197 6.4 14.5 0.00 0.00 0.00 68 1007.1
20260505173018 19 245 11.3 17.7 0.00 0.00 0.00 66 1007.0
20260505171521 18 270 9.7 19.3 0.00 0.00 0.00 71 1007.0
20260505170015 18 246 11.3 16.1 0.00 0.00 0.00 71 1006.9
20260505164509 18 244 9.7 19.3 0.00 0.00 0.00 73 1006.9
20260505163008 17 254 12.9 20.9 0.00 0.00 0.00 73 1006.8
20260505161502 17 273 11.3 19.3 0.00 0.00 0.00 75 1006.7
20260505153055 16 254 12.9 20.9 0.00 0.00 0.00 77 1006.6
20260505151554 16 226 9.7 20.9 0.00 0.00 0.00 78 1006.5
20260505124525 7 300 0.0 0.0 0.00 0.00 0.00 86 1005.2
20260505123024 8 300 0.0 0.0 0.00 0.00 0.00 86 1005.1
20260505121521 7 300 0.0 0.0 0.00 0.00 0.00 88 1005.0
20260505120019 7 300 0.0 0.0 0.00 0.00 0.00 85 1004.8
20260505114515 8 300 0.0 4.8 0.00 0.00 0.00 86 1004.7
20260505113012 8 171 1.6 3.2 0.00 0.00 0.00 86 1004.7
20260505111513 9 171 0.0 3.2 0.00 0.00 0.00 84 1004.5
20260505101503 10 171 0.0 3.2 0.00 0.00 0.00 79 1004.1
20260505100100 11 171 0.0 4.8 0.00 0.00 0.00 79 1004.1
20260505094559 10 171 1.6 3.2 0.00 0.00 0.00 83 1003.9
20260505093107 10 171 0.0 1.6 0.00 0.00 0.00 81 1003.8
20260505091554 11 171 0.0 3.2 0.00 0.00 0.00 79 1003.8
20260505090052 11 171 0.0 3.2 0.00 0.00 0.00 81 1003.8
20260505084552 11 171 4.8 8.0 0.00 0.00 0.00 79 1003.7
20260505083052 12 154 3.2 8.0 0.00 0.00 0.00 80 1003.8
20260505081553 11 173 3.2 9.7 0.00 0.00 0.00 82 1003.6
20260505080049 11 244 3.2 6.4 0.00 0.00 0.00 84 1003.5
20260505074545 11 216 0.0 3.2 0.00 0.00 0.00 81 1003.4
20260505073048 12 216 0.0 3.2 0.00 0.00 0.00 76 1003.3
20260505071550 12 216 0.0 4.8 0.00 0.00 0.00 75 1003.3
20260505070036 12 216 0.0 4.8 0.00 0.00 0.00 76 1003.1
20260505064534 11 240 0.0 4.8 0.00 0.00 0.00 77 1002.9
20260505063033 11 267 3.2 6.4 0.00 0.00 0.00 75 1002.7
20260505061533 13 279 0.0 3.2 0.00 0.00 0.00 72 1002.7
20260505060033 12 279 1.6 3.2 0.00 0.00 0.00 73 1002.5
20260505054548 12 279 1.6 4.8 0.00 0.00 0.00 74 1002.4
20260505053040 14 279 0.0 3.2 0.00 0.00 0.00 67 1002.4
20260505051537 13 279 1.6 4.8 0.00 0.00 0.00 68 1002.4
20260505041528 14 279 3.2 4.8 0.00 0.00 0.00 71 1002.1
20260505040035 14 175 1.6 3.2 0.00 0.00 0.00 72 1002.0
20260505034526 16 175 0.0 3.2 0.00 0.00 0.00 69 1001.9
20260505033031 16 175 0.0 1.6 0.00 0.00 0.00 69 1001.7
20260505031525 18 175 0.0 0.0 0.00 0.00 0.00 65 1001.6
20260505030027 20 175 0.0 0.0 0.00 0.00 0.00 62 1001.6
20260505024524 22 175 0.0 3.2 0.00 0.00 0.00 55 1001.5
20260505023024 23 175 3.2 6.4 0.00 0.00 0.00 47 1001.5
20260505021526 25 71 1.6 3.2 0.00 0.00 0.00 38 1001.6
20260505020021 26 71 0.0 1.6 0.00 0.00 0.00 35 1001.6
20260505014521 25 71 0.0 3.2 0.00 0.00 0.00 39 1001.7
20260505013019 25 165 0.0 6.4 0.00 0.00 0.00 38 1001.8
20260505011520 25 47 3.2 9.7 0.00 0.00 0.00 36 1002.0
20260505010017 25 333 3.2 8.0 0.00 0.00 0.00 43 1002.0
20260505004516 25 9 3.2 8.0 0.00 0.00 0.00 42 1002.1
20260505003015 25 63 0.0 8.0 0.00 0.00 0.00 43 1002.2
20260505001515 25 329 4.8 8.0 0.00 0.00 0.00 37 1002.3
20260505000013 25 335 8.0 16.1 0.00 0.00 0.00 37 1002.3
20260504234513 25 22 3.2 16.1 0.00 0.00 0.00 35 1002.3
20260504233013 25 340 6.4 16.1 0.00 0.00 0.00 33 1002.3
20260504231509 25 331 4.8 12.9 0.00 0.00 0.00 35 1002.4
20260504230009 25 5 9.7 16.1 0.00 0.00 0.00 39 1002.6
20260504224506 25 302 11.3 17.7 0.00 0.00 0.00 39 1002.7
20260504223005 25 360 6.4 16.1 0.00 0.00 0.00 33 1002.8
20260504221503 26 331 6.4 14.5 0.00 0.00 0.00 35 1003.0
20260504220124 26 332 8.0 17.7 0.00 0.00 0.00 38 1003.0
20260504214600 25 355 4.8 9.7 0.00 0.00 0.00 40 1003.2
20260504213101 25 330 4.8 14.5 0.00 0.00 0.00 41 1003.3
20260504211557 24 326 12.9 27.4 0.00 0.00 0.00 43 1003.5
20260504210054 25 71 19.3 27.4 0.00 0.00 0.00 43 1003.5
20260504204552 25 346 6.4 16.1 0.00 0.00 0.00 43 1003.6
20260504203050 25 351 3.2 8.0 0.00 0.00 0.00 41 1003.8
20260504201546 24 325 1.6 20.9 0.00 0.00 0.00 42 1003.9